Flag for Poland

Past Weather in Legnica, Poland — Yesterday and Last 2 Weeks

Now
59 °F

Overcast.


Feels Like: 59 °F
Forecast: 69 / 48 °F
Wind: No wind

Location: Wroclaw Ii
Current Time: Sep 19, 2020 at 9:06:06 pm
Latest Report: Sep 19, 2020 at 8:00 pm
Visibility: 31 mi
Pressure30.16 "Hg
Humidity: 63%
Dew Point: 46 °F
Location of LegnicaLocation

Past Weather in Legnica — Graph

°F

Legnica Temperature Yesterday

Maximum temperature yesterday: 65 °F (at 5:00 pm)
Minimum temperature yesterday: 42 °F (at 6:00 am)
Average temperature yesterday: 53 °F

High & Low Weather Summary for the Past Weeks

 TemperatureHumidityPressure
High85 °F (Sep 16, 4:00 pm)97% (Sep 11, 7:00 am)30.45 "Hg (Sep 11, 7:00 am)
Low39 °F (Sep 19, 4:00 am)35% (Sep 18, 5:00 pm)29.93 "Hg (Sep 5, 3:00 pm)
Average63 °F71%30.19 "Hg
* Reported Sep 4 7:00 pm — Sep 19 7:00 pm, Legnica. Weather by CustomWeather, © 2020

Note: Actual official high and low records may vary slightly from our data, if they occured in-between our weather recording intervals... More about our weather records

Legnica Weather History for the Previous 24 Hours

Scroll right to see more
 ConditionsComfort  
Time TempWeatherWind HumidityBarometerVisibility
7:00 pm
Sat, Sep 19
63 °FOvercast.1 mph45%30.17 "Hg31 mi
6:00 pm66 °FOvercast.3 mph42%30.17 "Hg31 mi
5:00 pm67 °FOvercast.5 mph43%30.18 "Hg31 mi
4:00 pm68 °FOvercast.5 mph37%30.19 "Hg31 mi
3:00 pm68 °FOvercast.3 mph37%30.22 "Hg31 mi
2:00 pm67 °FOvercast.5 mph39%30.24 "Hg25 mi
1:00 pm66 °FOvercast.6 mph42%30.25 "Hg25 mi
12:00 pm64 °FOvercast.5 mph47%30.27 "Hg25 mi
11:00 am62 °FOvercast.5 mph54%30.28 "Hg25 mi
10:00 am58 °FOvercast.3 mph60%30.29 "Hg19 mi
9:00 am53 °FPartly sunny.2 mph77%30.29 "Hg16 mi
8:00 am46 °FFog.1 mph93%30.30 "Hg12 mi
7:00 am40 °FFog.1 mph95%30.31 "Hg19 mi
6:00 am41 °FFog.1 mph94%30.32 "Hg19 mi
5:00 am41 °FFog.1 mph94%30.33 "Hg25 mi
4:00 am39 °FFog.1 mph90%30.34 "Hg25 mi
3:00 am43 °FFog.1 mph93%30.34 "Hg25 mi
2:00 am43 °FFog.No wind91%30.36 "Hg25 mi
1:00 am45 °FPassing clouds.1 mph90%30.36 "Hg25 mi
12:00 am45 °FPassing clouds.1 mph84%30.37 "Hg25 mi
11:00 pm
Fri, Sep 18
45 °FPassing clouds.No wind85%30.37 "Hg31 mi
10:00 pm47 °FPassing clouds.1 mph80%30.37 "Hg31 mi
9:00 pm51 °FPassing clouds.1 mph70%30.37 "Hg31 mi
Weather by CustomWeather, © 2020

See weather overview